CW0565 Kristiansand NO current weather conditions

sailwx.info

Wind from 040 at 1 knots gusting 4

Air temperature -0.0° C
Dewpoint -0.0° C

Last reported at 2019-Dec-12 17:55 UTC.
Time now 2019-Dec-12 18:21 UTC

Location: N 58°16' E 007°57'.
View on Google Maps.

See reports from other nearby stations

  
Tides and Currents Weather Stations Pressure Air Temp Water Temp Dewpoint Dewpoint Depression Visibility Wind Speed Wind Dir Waves Ship Positions
date/time (UTC)wind fromknots sea level pressurealtimeterstation pressurevisibilityair tempwater tempwave heightnotes
2019-Dec-12 17:55 040 1 gusting 4 -0.0
2019-Dec-12 17:50 317 1 gusting 3 -0.0
2019-Dec-12 17:46 296 1 gusting 3 -0.0
2019-Dec-12 17:40 326 1 gusting 2 -0.0
2019-Dec-12 17:35 326 -0.0
2019-Dec-12 17:31 326 0 gusting 2 -0.0
2019-Dec-12 17:25 326 1 gusting 3 -0.0
2019-Dec-12 17:20 326 1 gusting 3 -0.0
2019-Dec-12 17:17 326 -0.0
2019-Dec-12 17:10 326 1 gusting 3 -0.0
2019-Dec-12 17:05 326 0 gusting 3 -0.0
2019-Dec-12 17:00 326 -0.0
2019-Dec-12 16:55 326 -0.0
2019-Dec-12 16:50 326 -0.0
2019-Dec-12 16:47 325 1 gusting 4 -0.0
2019-Dec-12 16:40 326 1 gusting 3 -0.0
2019-Dec-12 16:35 155 0 gusting 2 -0.0
2019-Dec-12 16:30 155 0 gusting 2 -0.0
2019-Dec-12 16:25 157 -0.0
2019-Dec-12 16:20 157 -0.0
2019-Dec-12 16:17 157 -0.0
2019-Dec-12 16:10 157 -0.0
2019-Dec-12 16:05 157 0.6
2019-Dec-12 16:00 157 0.6
2019-Dec-12 15:55 156 0.6
2019-Dec-12 15:50 156 0.6
2019-Dec-12 15:40 157 0 gusting 1 0.6
2019-Dec-12 15:35 156 0.6
2019-Dec-12 15:30 156 0.6
2019-Dec-12 15:25 157 1.1
2019-Dec-12 15:20 156 1.1
2019-Dec-12 15:16 157 1.1
2019-Dec-12 15:10 156 1.1
2019-Dec-12 15:05 156 1.1
2019-Dec-12 15:00 157 1.7
2019-Dec-12 14:55 157 1.7
2019-Dec-12 14:50 156 1.7
2019-Dec-12 14:45 157 1 gusting 2 1.7
2019-Dec-12 14:40 156 0 gusting 1 1.7
2019-Dec-12 14:35 156 1.7
2019-Dec-12 14:31 156 1.7
2019-Dec-12 14:25 156 2.2
2019-Dec-12 14:20 156 2.2
2019-Dec-12 14:16 158 0 gusting 3 2.2
2019-Dec-12 14:10 159 0 gusting 2 2.2
2019-Dec-12 14:05 158 2.2
2019-Dec-12 14:00 159 2.2
2019-Dec-12 13:55 158 0 gusting 1 2.2
2019-Dec-12 13:50 158 0 gusting 1 2.2
2019-Dec-12 13:40 159 0 gusting 1 2.2
2019-Dec-12 13:31 159 2.2
2019-Dec-12 13:25 158 2.2
2019-Dec-12 13:15 158 2.2
2019-Dec-12 13:10 159 2.2
2019-Dec-12 13:05 158 0 gusting 4 2.2
2019-Dec-12 12:55 157 1 gusting 4 2.2
2019-Dec-12 12:50 157 2.8
2019-Dec-12 12:40 157 2.8
2019-Dec-12 12:35 157 2.8
2019-Dec-12 12:25 157 2.8
2019-Dec-12 12:20 156 2.8
2019-Dec-12 12:10 157 2.8
2019-Dec-12 12:05 156 2.8
2019-Dec-12 12:00 156 0 gusting 4 2.8
2019-Dec-12 11:55 157 0 gusting 2 2.8
2019-Dec-12 11:50 156 2.8
2019-Dec-12 11:45 157 0 gusting 5 2.8
2019-Dec-12 11:40 156 0 gusting 5 2.2
2019-Dec-12 11:35 156 0 gusting 4 2.2
2019-Dec-12 11:25 156 2.2
2019-Dec-12 11:19 156 2.2
2019-Dec-12 11:11 156 2.2
2019-Dec-12 11:06 156 2.2
2019-Dec-12 11:02 156 2.2
2019-Dec-12 10:56 156 2.2
2019-Dec-12 10:51 156 2.2
2019-Dec-12 10:48 158 2.2
2019-Dec-12 10:40 205 2.2
2019-Dec-12 10:36 205 2.2
2019-Dec-12 10:31 206 2.2
2019-Dec-12 10:25 206 2.2
2019-Dec-12 10:20 206 2.2
2019-Dec-12 10:10 205 1.7
2019-Dec-12 10:06 205 1.7
2019-Dec-12 10:01 206 1.7
2019-Dec-12 09:55 205 1.7
2019-Dec-12 09:50 206 1.7
2019-Dec-12 09:46 205 1.7
2019-Dec-12 09:40 206 1.7
2019-Dec-12 09:35 205 1.7
2019-Dec-12 09:31 206 1.7
2019-Dec-12 09:25 206 1.7
2019-Dec-12 09:20 206 1.7
2019-Dec-12 09:16 206 1.7
2019-Dec-12 09:10 205 2.2
2019-Dec-12 09:05 205 2.2
2019-Dec-12 09:02 206 2.2
2019-Dec-12 08:55 206 1 gusting 6 2.2
2019-Dec-12 08:50 197 2 gusting 4 1.7
2019-Dec-12 08:47 198 1.7
2019-Dec-12 08:41 198 0 gusting 3 1.7
2019-Dec-12 08:35 198 1.7
2019-Dec-12 08:31 198 1.7
2019-Dec-12 08:25 197 1.7
2019-Dec-12 08:20 198 1 gusting 6 2.2
2019-Dec-12 08:17 198 3 gusting 6 2.2
2019-Dec-12 08:10 200 4 gusting 6 2.2
2019-Dec-12 08:05 229 1 gusting 6 1.7
2019-Dec-12 08:01 179 1.7
2019-Dec-12 07:55 179 1.7
2019-Dec-12 07:51 179 1.7
2019-Dec-12 07:46 179 1.7
2019-Dec-12 07:40 179 1.7
2019-Dec-12 07:35 179 1.7
2019-Dec-12 07:31 179 1.7
2019-Dec-12 07:25 179 1.7
2019-Dec-12 07:20 179 1.7
2019-Dec-12 07:05 179 1.7
2019-Dec-12 07:01 180 1.7
2019-Dec-12 06:56 179 1.7
2019-Dec-12 06:50 179 2.2
2019-Dec-12 06:46 180 2.2
2019-Dec-12 06:40 180 1.7
2019-Dec-12 06:35 180 1.7
2019-Dec-12 06:30 179 1.7
2019-Dec-12 06:25 179 1.7
2019-Dec-12 06:20 179 2.2
2019-Dec-12 06:16 179 2.2
2019-Dec-12 06:10 179 1.7
2019-Dec-12 06:01 179 2.2
2019-Dec-12 05:55 179 2.2
2019-Dec-12 05:50 179 2.2
2019-Dec-12 05:46 179 2.2
2019-Dec-12 05:40 179 2.2
2019-Dec-12 05:35 179 2.2
2019-Dec-12 05:31 179 2.2
2019-Dec-12 05:25 179 2.2
2019-Dec-12 05:20 180 0 gusting 3 2.2
2019-Dec-12 05:16 179 2.8
2019-Dec-12 05:10 179 5 gusting 9 2.8
2019-Dec-12 05:06 198 2 gusting 6 2.2
2019-Dec-12 05:01 182 2.2
2019-Dec-12 04:55 182 2.2
2019-Dec-12 04:50 182 0 gusting 3 2.2
2019-Dec-12 04:45 182 2.2
2019-Dec-12 04:40 182 2.2
2019-Dec-12 04:35 182 2.2
2019-Dec-12 04:31 182 2.2
2019-Dec-12 04:25 182 2.2
2019-Dec-12 04:20 182 2.2
2019-Dec-12 04:15 182 2.2
2019-Dec-12 04:10 182 2.2
2019-Dec-12 04:05 182 0 gusting 2 2.2
2019-Dec-12 04:00 182 0 gusting 2 2.2
2019-Dec-12 03:55 182 0 gusting 2 2.2
2019-Dec-12 03:50 182 2.2
2019-Dec-12 03:47 182 0 gusting 1 2.2
2019-Dec-12 03:40 182 2.2
2019-Dec-12 03:35 182 2.2
2019-Dec-12 03:32 181 2 gusting 4 2.8
2019-Dec-12 03:25 155 0 gusting 4 2.2
2019-Dec-12 03:20 155 1 gusting 4 2.2
2019-Dec-12 03:16 155 0 gusting 2 2.2
2019-Dec-12 03:10 155 2.2
2019-Dec-12 03:05 155 0 gusting 5 2.2
2019-Dec-12 03:00 155 2.2
2019-Dec-12 02:55 155 2 gusting 14 2.2
2019-Dec-12 02:50 132 4 gusting 20 2.8
2019-Dec-12 02:45 266 6 gusting 20 2.8
2019-Dec-12 02:40 207 10 gusting 19 2.2
2019-Dec-12 02:35 202 2.2
2019-Dec-12 02:30 202 2.8
2019-Dec-12 02:25 202 0 gusting 1 2.8
2019-Dec-12 02:20 202 2.8
2019-Dec-12 02:10 202 2.8
2019-Dec-12 02:00 202 1 gusting 3 2.8
2019-Dec-12 01:55 202 0 gusting 2 2.8
2019-Dec-12 01:45 202 2.8
2019-Dec-12 01:40 202 2.8
2019-Dec-12 01:35 202 2.8
2019-Dec-12 01:30 202 2.8
2019-Dec-12 01:25 202 2.8
2019-Dec-12 01:20 202 2.8
2019-Dec-12 01:15 203 3.3
2019-Dec-12 01:10 202 3.3
2019-Dec-12 01:05 202 2.8
2019-Dec-12 00:55 202 0 gusting 2 2.8
2019-Dec-12 00:50 202 3.3
2019-Dec-12 00:45 202 0 gusting 2 3.3
2019-Dec-12 00:40 202 3.3
2019-Dec-12 00:35 202 0 gusting 4 3.3
2019-Dec-12 00:30 202 1 gusting 4 3.3
2019-Dec-12 00:25 202 1 gusting 4 3.3
2019-Dec-12 00:20 202 1 gusting 3 3.3
2019-Dec-12 00:15 202 0 gusting 2 3.3
2019-Dec-12 00:10 202 0 gusting 2 2.8
2019-Dec-12 00:00 202 0 gusting 2 2.8
2019-Dec-11 23:50 203 2.8
2019-Dec-11 23:47 202 0 gusting 3 3.3
2019-Dec-11 23:40 202 1 gusting 6 3.3
2019-Dec-11 23:35 202 1 gusting 8 3.3
2019-Dec-11 23:33 195 4 gusting 8 3.3
2019-Dec-11 23:25 237 0 gusting 4 3.3
2019-Dec-11 23:20 237 1 gusting 4 3.3
2019-Dec-11 23:18 181 3.3
2019-Dec-11 23:11 181 0 gusting 3 3.3
2019-Dec-11 23:05 181 0 gusting 2 3.3
2019-Dec-11 23:03 181 3.3
2019-Dec-11 22:55 181 0 gusting 3 3.3
2019-Dec-11 22:50 181 0 gusting 3 3.3
2019-Dec-11 22:46 181 0 gusting 3 3.3
2019-Dec-11 22:40 184 1 gusting 5 3.3
2019-Dec-11 22:35 186 2 gusting 5 3.3
2019-Dec-11 22:32 186 1 gusting 3 3.3
2019-Dec-11 22:25 186 0 gusting 4 3.3
2019-Dec-11 22:20 187 0 gusting 6 3.3
2019-Dec-11 22:16 186 2 gusting 6 3.3
2019-Dec-11 22:11 172 3 gusting 6 3.3
2019-Dec-11 22:05 178 3 gusting 6 3.3
2019-Dec-11 22:01 178 4 gusting 7 3.3
2019-Dec-11 21:55 186 2 gusting 7 3.3
2019-Dec-11 21:50 188 3 gusting 8 3.3
2019-Dec-11 21:46 191 5 gusting 8 3.3
2019-Dec-11 21:40 172 5 gusting 7 3.3
2019-Dec-11 21:35 178 4 gusting 10 3.3
2019-Dec-11 21:31 205 5 gusting 13 3.3
2019-Dec-11 21:26 224 6 gusting 13 3.3
2019-Dec-11 21:20 184 6 gusting 8 3.3
2019-Dec-11 21:16 186 3 gusting 6 3.3
2019-Dec-11 21:11 169 4 gusting 7 3.3
2019-Dec-11 21:06 170 3 gusting 4 3.3
2019-Dec-11 21:01 169 2 gusting 5 3.3
2019-Dec-11 20:56 169 1 gusting 5 3.3
2019-Dec-11 20:50 169 2 gusting 5 3.3
2019-Dec-11 20:47 169 2 gusting 5 3.3
2019-Dec-11 20:40 169 2 gusting 5 3.3
2019-Dec-11 20:35 169 3 gusting 6 3.3
2019-Dec-11 20:31 169 2 gusting 8 3.3
2019-Dec-11 20:25 172 4 gusting 8 3.3
2019-Dec-11 20:20 186 3 gusting 6 3.3
2019-Dec-11 20:16 182 3 gusting 5 3.3
2019-Dec-11 20:10 182 1 gusting 4 3.3
2019-Dec-11 20:05 182 2 gusting 4 2.8
2019-Dec-11 20:02 182 2 gusting 4 2.8
2019-Dec-11 19:55 182 1 gusting 3 2.8
2019-Dec-11 19:50 182 1 gusting 3 2.8
2019-Dec-11 19:41 182 0 gusting 2 2.8
2019-Dec-11 19:35 182 0 gusting 2 2.8
2019-Dec-11 19:32 182 0 gusting 3 2.8
2019-Dec-11 19:25 182 0 gusting 3 2.8
2019-Dec-11 19:20 182 2.8
2019-Dec-11 19:16 182 1 gusting 5 2.8
2019-Dec-11 19:10 182 3 gusting 5 2.8
2019-Dec-11 19:05 177 3 gusting 4 2.2
2019-Dec-11 19:00 182 2 gusting 5 2.2
2019-Dec-11 18:55 187 0 gusting 5 2.2
2019-Dec-11 18:50 188 1 gusting 10 2.8
2019-Dec-11 18:47 188 4 gusting 12 2.8
2019-Dec-11 18:40 216 6 gusting 12 2.8
2019-Dec-11 18:35 202 2.2
2019-Dec-11 18:31 202 0 gusting 2 2.2
2019-Dec-11 18:25 203 0 gusting 1 2.2
2019-Dec-11 18:20 202 2.2
2019-Dec-11 18:16 203 2.2
2019-Dec-11 18:10 203 2.2
2019-Dec-11 18:05 203 2.2
2019-Dec-11 18:01 203 2.2
2019-Dec-11 17:55 203 2.2
2019-Dec-11 17:50 202 2.8
2019-Dec-11 17:46 202 2.8
2019-Dec-11 17:40 203 2.8
2019-Dec-11 17:35 203 2.8
2019-Dec-11 17:30 202 2.8
2019-Dec-11 17:25 203 2.8
2019-Dec-11 17:20 203 1 gusting 3 2.8
2019-Dec-11 17:16 202 0 gusting 2 2.8
2019-Dec-11 17:10 202 1 gusting 2 2.8
2019-Dec-11 17:05 202 0 gusting 3 2.8
2019-Dec-11 17:01 203 1 gusting 4 2.8
2019-Dec-11 16:55 207 1 gusting 4 2.8
2019-Dec-11 16:50 207 2 gusting 4 2.8
2019-Dec-11 16:46 207 1 gusting 4 2.8
2019-Dec-11 16:40 207 1 gusting 4 2.8
2019-Dec-11 16:35 207 1 gusting 3 2.8
2019-Dec-11 16:31 209 0 gusting 3 2.8
2019-Dec-11 16:25 208 0 gusting 6 3.3
2019-Dec-11 16:21 180 2 gusting 16 3.3
2019-Dec-11 16:15 214 6 gusting 16 3.3
2019-Dec-11 16:10 225 2 gusting 6 2.8
2019-Dec-11 16:05 203 1 gusting 2 2.8
2019-Dec-11 16:02 203 0 gusting 2 2.8
2019-Dec-11 15:55 203 2.8
2019-Dec-11 15:50 204 0 gusting 3 3.3
2019-Dec-11 15:46 203 0 gusting 3 3.3
2019-Dec-11 15:40 204 1 gusting 5 3.3
2019-Dec-11 15:35 204 2 gusting 5 3.3
2019-Dec-11 15:32 202 3 gusting 6 3.3
2019-Dec-11 15:25 203 3 gusting 6 3.3
2019-Dec-11 15:16 188 2 gusting 6 3.3
2019-Dec-11 15:10 189 3 gusting 7 3.3
2019-Dec-11 15:05 181 3 gusting 8 3.3
2019-Dec-11 15:01 219 5 gusting 8 3.3
2019-Dec-11 14:55 188 4 gusting 10 3.3
2019-Dec-11 14:50 243 6 gusting 10 3.3
2019-Dec-11 14:46 190 3 gusting 5 3.3
2019-Dec-11 14:40 196 2 gusting 5 3.3
2019-Dec-11 14:35 196 3.3
2019-Dec-11 14:30 196 3.3
2019-Dec-11 14:25 196 3.3
2019-Dec-11 14:20 196 3.9
2019-Dec-11 14:16 196 3.9
2019-Dec-11 14:10 196 3.9
2019-Dec-11 14:05 196 1 gusting 3 3.9
2019-Dec-11 14:01 196 0 gusting 4 3.9
2019-Dec-11 13:55 196 3.9
2019-Dec-11 13:50 196 3.9
2019-Dec-11 13:45 196 0 gusting 4 3.9
2019-Dec-11 13:40 196 1 gusting 5 3.9
2019-Dec-11 13:35 196 2 gusting 7 3.9
2019-Dec-11 13:30 196 3 gusting 8 3.9
2019-Dec-11 13:25 206 5 gusting 12 3.9
2019-Dec-11 13:20 209 6 gusting 13 3.9
2019-Dec-11 13:16 218 4 gusting 15 3.9
2019-Dec-11 13:10 184 10 gusting 19 3.9
2019-Dec-11 13:05 224 9 gusting 19 3.9
2019-Dec-11 13:00 213 6 gusting 12 3.9
2019-Dec-11 12:56 257 6 gusting 12 3.9
2019-Dec-11 12:50 212 2 gusting 17 3.9
2019-Dec-11 12:45 221 8 gusting 17 3.9
2019-Dec-11 12:40 236 11 gusting 18 3.9
2019-Dec-11 12:35 198 8 gusting 21 3.9
2019-Dec-11 12:30 198 9 gusting 21 3.9
2019-Dec-11 12:25 221 10 gusting 19 3.9
2019-Dec-11 12:20 191 3 gusting 8 4.4
2019-Dec-11 12:15 192 4 gusting 10 4.4
2019-Dec-11 12:05 173 2 gusting 7 4.4
2019-Dec-11 12:00 184 3 gusting 7 4.4
2019-Dec-11 11:55 188 4 gusting 8 4.4
2019-Dec-11 11:50 192 5 gusting 9 4.4
2019-Dec-11 11:45 180 4 gusting 8 4.4
2019-Dec-11 11:40 201 5 gusting 8 4.4
2019-Dec-11 11:35 189 3 gusting 7 4.4
2019-Dec-11 11:25 209 6 gusting 10 5.0
2019-Dec-11 11:15 230 6 gusting 10 5.0
2019-Dec-11 11:10 233 4 gusting 10 5.0
2019-Dec-11 11:05 204 4 gusting 7 4.4
2019-Dec-11 10:55 200 5 gusting 13 4.4
2019-Dec-11 10:45 193 4 gusting 11 4.4
2019-Dec-11 10:40 206 6 gusting 14 4.4
2019-Dec-11 10:35 197 6 gusting 14 4.4
2019-Dec-11 10:20 200 4 gusting 9 4.4
2019-Dec-11 10:15 215 6 gusting 9 3.9
2019-Dec-11 10:10 213 5 gusting 12 3.9
2019-Dec-11 10:05 167 6 gusting 12 3.9
2019-Dec-11 10:00 187 3 gusting 7 3.9
2019-Dec-11 09:55 196 3 gusting 7 3.9
2019-Dec-11 09:50 175 3 gusting 6 3.9
2019-Dec-11 09:45 190 1 gusting 8 3.9
2019-Dec-11 09:40 209 4 gusting 9 4.4
2019-Dec-11 09:35 205 6 gusting 9 4.4
2019-Dec-11 09:25 200 6 gusting 11 4.4
2019-Dec-11 09:20 184 6 gusting 13 4.4
2019-Dec-11 09:15 173 6 gusting 14 4.4
2019-Dec-11 09:10 188 5 gusting 12 3.9
2019-Dec-11 09:05 173 6 gusting 13 4.4
2019-Dec-11 08:55 203 9 gusting 15 4.4
2019-Dec-11 08:50 204 3 gusting 6 4.4
2019-Dec-11 08:40 200 5 gusting 8 4.4
2019-Dec-11 08:36 181 6 gusting 8 4.4
2019-Dec-11 08:33 215 6 gusting 9 4.4
2019-Dec-11 08:26 209 4 gusting 10 4.4
2019-Dec-11 08:21 231 4 gusting 13 4.4
2019-Dec-11 08:10 236 6 gusting 18 4.4
2019-Dec-11 08:06 212 9 gusting 18 4.4
2019-Dec-11 08:03 193 9 gusting 18 4.4
2019-Dec-11 07:56 234 4 gusting 11 4.4
2019-Dec-11 07:51 222 4 gusting 11 4.4
2019-Dec-11 07:49 218 5 gusting 10 4.4
2019-Dec-11 07:40 243 6 gusting 10 4.4
2019-Dec-11 07:35 230 6 gusting 19 4.4
2019-Dec-11 07:32 178 7 gusting 19 4.4
2019-Dec-11 07:25 212 7 gusting 13 4.4
2019-Dec-11 07:20 209 5 gusting 9 4.4
2019-Dec-11 07:16 216 5 gusting 11 4.4
2019-Dec-11 07:10 250 6 gusting 10 4.4
2019-Dec-11 07:05 215 4 gusting 8 4.4
2019-Dec-11 07:02 208 4 gusting 8 4.4
2019-Dec-11 06:56 213 3 gusting 8 4.4
2019-Dec-11 06:50 181 4 gusting 11 4.4
2019-Dec-11 06:47 223 6 gusting 11 4.4
2019-Dec-11 06:40 211 6 gusting 9 4.4
2019-Dec-11 06:35 200 4 gusting 7 4.4
2019-Dec-11 06:32 204 4 gusting 8 4.4
2019-Dec-11 06:25 199 4 gusting 9 4.4
2019-Dec-11 06:20 209 2 gusting 8 4.4
2019-Dec-11 06:17 215 5 gusting 8 4.4
2019-Dec-11 06:10 226 3 gusting 9 4.4
2019-Dec-11 06:05 205 4 gusting 12 4.4
2019-Dec-11 06:01 226 6 gusting 12 4.4
2019-Dec-11 05:56 205 4 gusting 9 4.4
2019-Dec-11 05:50 205 4 gusting 7 4.4
2019-Dec-11 05:46 197 2 gusting 6 4.4
2019-Dec-11 05:40 204 3 gusting 6 4.4
2019-Dec-11 05:35 211 3 gusting 8 4.4
2019-Dec-11 05:31 213 3 gusting 10 4.4
2019-Dec-11 05:25 209 6 gusting 11 4.4
2019-Dec-11 05:20 214 4 gusting 9 4.4
2019-Dec-11 05:15 204 5 gusting 10 4.4
2019-Dec-11 05:10 205 6 gusting 10 4.4
2019-Dec-11 05:05 209 6 gusting 13 4.4
2019-Dec-11 05:02 204 6 gusting 13 4.4
2019-Dec-11 04:56 206 6 gusting 12 4.4
2019-Dec-11 04:50 209 7 gusting 15 4.4
2019-Dec-11 04:46 191 7 gusting 22 5.0
2019-Dec-11 04:40 203 13 gusting 22 5.0
2019-Dec-11 04:36 227 6 gusting 10 5.0
2019-Dec-11 04:32 188 4 gusting 11 5.0
2019-Dec-11 04:25 217 5 gusting 12 5.0
2019-Dec-11 04:20 207 3 gusting 9 5.0
2019-Dec-11 04:15 220 6 gusting 9 5.0
2019-Dec-11 04:10 205 4 gusting 11 5.0
2019-Dec-11 04:05 250 6 gusting 13 5.0
2019-Dec-11 04:00 220 6 gusting 13 5.0
2019-Dec-11 03:55 240 6 gusting 12 5.0
2019-Dec-11 03:50 216 5 gusting 12 5.0
2019-Dec-11 03:46 245 6 gusting 12 5.0
2019-Dec-11 03:40 231 3 gusting 12 5.0
2019-Dec-11 03:35 247 5 gusting 12 5.6
2019-Dec-11 03:25 246 4 gusting 22 5.6
2019-Dec-11 03:20 238 13 gusting 22 5.6
2019-Dec-11 03:10 209 10 gusting 19 6.1
2019-Dec-11 03:00 229 8 gusting 19 6.1
2019-Dec-11 02:50 213 8 gusting 16 6.1
2019-Dec-11 02:40 254 8 gusting 22 6.7
2019-Dec-11 02:35 254 12 gusting 21 6.7
2019-Dec-11 02:26 309 12 gusting 19 6.7
2019-Dec-11 02:20 213 6 gusting 15 6.7
2019-Dec-11 02:18 233 6 gusting 13 6.7
2019-Dec-11 02:10 188 6 gusting 16 6.7
2019-Dec-11 02:05 218 7 gusting 16 6.7
2019-Dec-11 02:03 202 7 gusting 17 7.2
2019-Dec-11 01:55 214 7 gusting 17 7.2
2019-Dec-11 01:51 180 7 gusting 18 7.2
2019-Dec-11 01:48 198 7 gusting 15 7.2
2019-Dec-11 01:40 205 8 gusting 19 7.2
2019-Dec-11 01:36 235 11 gusting 19 7.2
2019-Dec-11 01:33 229 10 gusting 23 7.8
2019-Dec-11 01:25 215 12 gusting 23 7.8
2019-Dec-11 01:20 234 10 gusting 18 7.8
2019-Dec-11 01:19 199 8 gusting 21 7.8
2019-Dec-11 01:11 244 12 gusting 21 7.8
2019-Dec-11 01:05 199 13 gusting 26 7.8
2019-Dec-11 01:03 191 15 gusting 32 7.8
2019-Dec-11 00:55 186 16 gusting 31 7.8
2019-Dec-11 00:51 189 12 gusting 26 7.8
2019-Dec-11 00:47 213 13 gusting 26 7.8
2019-Dec-11 00:41 200 14 gusting 26 7.8
2019-Dec-11 00:36 186 15 gusting 35 7.2
2019-Dec-11 00:32 200 17 gusting 35 7.2
2019-Dec-11 00:25 187 15 gusting 33 7.2
2019-Dec-11 00:20 190 17 gusting 38 7.2
2019-Dec-11 00:16 186 16 gusting 36 7.2
2019-Dec-11 00:11 196 14 gusting 25 7.2
2019-Dec-11 00:05 188 14 gusting 33 7.2
2019-Dec-11 00:01 208 15 gusting 33 7.2
2019-Dec-10 23:55 184 13 gusting 28 7.2
2019-Dec-10 23:50 200 18 gusting 30 7.2
2019-Dec-10 23:47 208 17 gusting 27 7.2
2019-Dec-10 23:40 166 13 gusting 26 7.2
2019-Dec-10 23:35 215 19 gusting 26 6.7
2019-Dec-10 23:32 193 13 gusting 25 6.7
2019-Dec-10 23:25 192 14 gusting 28 6.7
2019-Dec-10 23:20 173 13 gusting 26 6.7
2019-Dec-10 23:16 213 13 gusting 28 6.7
2019-Dec-10 23:10 157 17 gusting 27 6.7
2019-Dec-10 23:05 207 16 gusting 27 6.7
2019-Dec-10 23:01 181 13 gusting 28 6.7
2019-Dec-10 22:55 132 18 gusting 28 6.7
2019-Dec-10 22:50 166 13 gusting 33 6.7
2019-Dec-10 22:46 211 16 gusting 33 6.7
2019-Dec-10 22:40 186 14 gusting 24 6.7
2019-Dec-10 22:37 167 11 gusting 27 6.7
2019-Dec-10 22:33 202 16 gusting 31 6.7
2019-Dec-10 22:25 178 17 gusting 31 6.7
2019-Dec-10 22:20 235 14 gusting 27 6.7
2019-Dec-10 22:15 173 14 gusting 26 6.7
2019-Dec-10 22:10 194 15 gusting 26 6.7
2019-Dec-10 22:05 184 14 gusting 26 6.1
2019-Dec-10 22:01 204 15 gusting 26 6.1
2019-Dec-10 21:55 173 14 gusting 24 6.1
2019-Dec-10 21:50 190 13 gusting 21 6.1
2019-Dec-10 21:46 180 10 gusting 26 6.1
2019-Dec-10 21:40 164 12 gusting 26 6.1
2019-Dec-10 21:35 198 13 gusting 24 6.1
2019-Dec-10 21:31 207 12 gusting 24 6.1
2019-Dec-10 21:25 190 12 gusting 22 6.1
2019-Dec-10 21:20 207 12 gusting 24 6.1
2019-Dec-10 21:15 189 14 gusting 25 6.1
2019-Dec-10 21:10 181 14 gusting 30 6.1
2019-Dec-10 21:05 208 17 gusting 30 5.6
2019-Dec-10 20:55 171 11 gusting 27 5.6
2019-Dec-10 20:50 197 14 gusting 27 5.6
2019-Dec-10 20:40 155 13 gusting 22 5.6
2019-Dec-10 20:30 168 14 gusting 26 5.6
2019-Dec-10 20:25 173 13 gusting 26 5.6
2019-Dec-10 20:20 203 11 gusting 24 5.6
2019-Dec-10 20:10 196 14 gusting 24 5.6
2019-Dec-10 20:05 197 10 gusting 20 5.6
2019-Dec-10 19:55 203 13 gusting 22 5.6
2019-Dec-10 19:47 205 16 gusting 27 5.0
2019-Dec-10 19:40 193 14 gusting 24 5.0
2019-Dec-10 19:36 204 14 gusting 23 5.0
2019-Dec-10 19:32 207 12 gusting 22 5.0
2019-Dec-10 19:26 202 12 gusting 19 5.0
2019-Dec-10 19:22 191 13 gusting 26 5.0
2019-Dec-10 19:19 171 12 gusting 26 5.0
2019-Dec-10 19:11 172 10 gusting 28 5.0
2019-Dec-10 19:06 194 15 gusting 28 5.0
2019-Dec-10 19:05 166 9 gusting 33 5.0
2019-Dec-10 18:55 202 14 gusting 33 5.0
2019-Dec-10 18:51 175 14 gusting 26 4.4
2019-Dec-10 18:50 171 13 gusting 26 4.4
2019-Dec-10 18:41 178 11 gusting 27 4.4
2019-Dec-10 18:36 179 13 gusting 27 4.4
2019-Dec-10 18:33 191 13 gusting 26 4.4
2019-Dec-10 18:25 212 13 gusting 26 4.4
2019-Dec-10 18:20 182 14 gusting 26 4.4
2019-Dec-10 18:18 185 13 gusting 21 4.4
2019-Dec-10 18:11 225 13 gusting 26 4.4
2019-Dec-10 18:05 188 18 gusting 27 4.4
2019-Dec-10 18:02 191 18 gusting 27 4.4